Regional Weather Roundup
Issued by NWS Portland, ME

Home | Current Version | Previous Version | Text Only | Print | Product List | Glossary On
Versions: 1 2 3 4 5 6 7 8 9 10 11 12 13 14 15 16 17 18 19 20 21 22 23 24 25 26 27 28 29 30 31 32 33 34 35 36 37 38 39 40 41 42 43 44 45 46 47 48 49 50
000
ASUS41 KGYX 290610
RWRGYX
WEATHER ROUNDUP FOR MAINE AND NEW HAMPSHIRE
NATIONAL WEATHER SERVICE GRAY ME
100 AM EST THU JAN 29 2015

MEZ002-005-006-010-012-015-018-020-021-024-026-027-029-290700-
MAINE

CITY           SKY/WX    TMP DP  RH WIND       PRES   REMARKS
PORTLAND       PTCLDY     8   0  69 NW3       30.23R
6HR MIN TEMP:   4; 6HR MAX TEMP:  22;

SANFORD        PTCLDY   -13 -22  64 CALM      30.22R
BAR HARBOR     PTCLDY     7   5  92 CALM      30.19R
WISCASSET      PTCLDY     0  -4  83 CALM      30.24R
6HR MIN TEMP:  -1; 6HR MAX TEMP:  20;

ROCKLAND       CLEAR      9   5  85 W3        30.20R
FRYEBURG       PTCLDY    -8 -13  78 CALM      30.21R
6HR MIN TEMP: -14; 6HR MAX TEMP:  18;

LEWISTONAUBURN PTCLDY    12  -4  48 W3        30.18R
AUGUSTA        MOCLDY     9  -2  61 W3        30.20R
6HR MIN TEMP:   8; 6HR MAX TEMP:  18;

WATERVILLE     PTCLDY     7  -2  66 CALM      30.16R
BANGOR         PTCLDY    -2  -6  83 CALM      30.18R
6HR MIN TEMP:  -3; 6HR MAX TEMP:  17;

GREENVILLE       N/A      7  -4  60 NW12G17   30.09R WCI  -8
6HR MIN TEMP:   4; 6HR MAX TEMP:   9;

MILLINOCKET    PTCLDY    11   0  61 NW9G20    30.15R
6HR MIN TEMP:  10; 6HR MAX TEMP:  18;

HOULTON        PTCLDY     1  -5  75 NE7       30.11R
6HR MIN TEMP:  -2; 6HR MAX TEMP:  16;

PRESQUE ISLE   PTCLDY   -11 N/A N/A CALM      30.11R
6HR MIN TEMP: -11; 6HR MAX TEMP:  12;

FRENCHVILLE    PTCLDY     4  -4  69 W5        30.07R
6HR MIN TEMP:   4; 6HR MAX TEMP:   8;

CARIBOU        PTCLDY     4  -1  80 CALM      30.11R
6HR MIN TEMP:   3; 6HR MAX TEMP:  10;

$$

NHZ002-005-008-009-011-012-014-290700-
NEW HAMPSHIRE

CITY           SKY/WX    TMP DP  RH WIND       PRES   REMARKS
PORTSMOUTH     CLEAR      4  -3  73 W6        30.23R
ROCHESTER      PTCLDY     8  -2  63 NW7       30.21R
6HR MIN TEMP:   5; 6HR MAX TEMP:  19;

NASHUA           N/A     -2  -7  79 CALM      30.26R
MANCHESTER     CLEAR     10  -3  55 N7        30.23R
6HR MIN TEMP:   8; 6HR MAX TEMP:  20;

CONCORD        CLEAR     -1  -6  79 CALM      30.25R
6HR MIN TEMP:  -3; 6HR MAX TEMP:  19;

LACONIA        PTCLDY    10  -2  56 W5        30.19R
PLYMOUTH       FAIR      17   0  48 W14G21    30.23R WCI   3
BERLIN         MOCLDY   -18 -25  70 CALM      30.24R
6HR MIN TEMP: -20; 6HR MAX TEMP:   2;

WHITEFIELD     PTCLDY   -17 -22  78 CALM      30.26R
6HR MIN TEMP: -17; 6HR MAX TEMP:   0;

JAFFREY        PTCLDY    -6 -10  83 S3        30.20R
6HR MIN TEMP:  -7; 6HR MAX TEMP:  17;

KEENE          CLEAR     -2  -6  84 CALM      30.27R
LEBANON        PTCLDY    -5 -10  79 CALM      30.29R
6HR MIN TEMP:  -6; 6HR MAX TEMP:  16;

MT WASHINGTON  PTCLDY     9 -17  31 N22         N/A  WCI -11
6HR MIN TEMP:   5; 6HR MAX TEMP:  15;

$$

VTZ005-007-008-290700-
VERMONT

CITY           SKY/WX    TMP DP  RH WIND       PRES   REMARKS
ST JOHNSBURY     N/A     -7 -12  79 MISG      30.29R
MONTPELIER     MOCLDY    -5  -9  83 S3        30.27S
BURLINGTON     PTCLDY     2  -6  69 SE6       30.31S
$$

MAZ007-012-024-CTZ003-RIZ002-NYZ038-NYZ072-290700-
SOUTHERN NEW ENGLAND AND NY

CITY           SKY/WX    TMP DP  RH WIND       PRES   REMARKS
BOSTON         CLEAR     16  -1  47 NW5       30.24S
WORCESTER      PTCLDY    12  -6  44 NW10      30.17R WCI  -1
NANTUCKET      CLOUDY    28  20  71 NW15      30.18S WCI  16
PROVIDENCE     CLEAR     15  -1  49 N6        30.24S
HARTFORD       PTCLDY    12  -1  56 N7        30.26R
ALBANY         PTCLDY     3  -4  72 CALM      30.35R
NEW YORK CITY  CLEAR     24   5  44 N8        30.29R
$$

ANZ081-ANZ082-ANZ150-NHZ014-MEZ023>029-290700-
COASTAL MARINE OBSERVATIONS

STATION/POSITION TIME  TEMP    WIND        PRES    WAVE
                       AIR SEA DIR/SP/G            HT/PER
                 (UTC) (F)     (DEG/KT/KT) (MB)    (FT/S)
MOUNT DESERT ROC 0600   22                 1021.4R
MATINICUS ROCK   0500          350/ 12/ 16 1021.5R
PORTLAND WX BUOY 0550   21 40  310/  8/ 10 1023.6R   3/10
WELLS            0500   12 33  310/  4/  5 1022.6R
ISLE OF SHOALS   0500   20     310/ 14/ 15 1022.5R
JEFFREYS LEDGE   0521      44                N/A     5/11
CASHES LEDGE BUO 0550   24 44  360/ 16/ 21 1022.2R   6/11
$$

.............KEY..............
   WCI - WIND CHILL
   TC  - TEMPERATURE IN CELSIUS
   VSB - VISIBILITY IN MILES
   HX  - HEAT INDEX
   FAIR- INDICATES FEW OR NO CLOUDS BELOW 12,000 FT, WITH NO
         SIGNIFICANT WEATHER AND/OR OBSTRUCTIONS TO VISIBILITY.





USA.gov is the U.S. government's official web portal to all federal, state and local government web resources and services.